User: anonymous   Login
Location: Hartman Creek State Park
(44.3257°N, 89.2134°W)
Time: 20:52:31
(UTC-05:00)
Language:

Terra - Orbit

View from above orbital plane
View from above orbital plane
View from above satellite
View from above satellite

Ground track
Ground track

The orbit data is extracted from the following two-line orbital elements,

1 25994U 99068A   15181.74637935  .00000108  00000-0  34132-4 0  9997
2 25994 098.2112 256.1189 0001646 099.8223 260.3147 14.57099944826197
Epoch (UTC): 30 June 2015 17:54:47
Eccentricity: 0.0001646
inclination: 98.2112°
perigee height: 701 km
apogee height: 704 km
right ascension of ascending node: 256.1189°
argument of perigee: 99.8223°
revolutions per day: 14.57099944
mean anomaly at epoch: 260.3147°
orbit number at epoch: 82619

The dashed part of the orbit path shows where the satellite is in the earth's shadow,  

DLR